DMSP 5D-2 F13 DEB, 40469

Orbit data source: Space-Track

DMSP 5D-2 F13 DEB, 40469 is space debris in SSO originally from a launch on Fri, 24 Mar 1995 UTC launched from the Air Force Western Test Range (AFWTR). Debris objects in space refer to the collection of defunct objects orbiting the Earth. Examples of debris include non-operational satellites, rocket bodies, and fragments generated from explosions, collisions, or faulty payload assembly.

Loading next visibility...
Identifier
40469, 1995-015BM
Orbit
SSO
Country
Flag of USUS
Related business
Manufacturer
Unknown
Mission
Spacecraft
Bus & Motor
Unknown
Mass
Unknown
Launch date (UTC)
1995-03-24 (31 years ago)
Launch vehicle
Unknown
Launch site
Air Force Western Test Range (AFWTR)
Object type
Payload
Rocket body
Debris
Shape & HBR
Unknown shape, 0.1 m
Radar Cross Section
Small (<0.1 m²)

Expand to show TLE details & history
Last TLE update: 1 day ago

TLE from 1 day ago
0 DMSP 5D-2 F13 DEB
1 40469U 95015BM  26191.43624061  .00005663  00000-0  11727-2 0  9998
2 40469  98.5639 259.9433 0019141  28.9167 331.3088 14.60556748592692
Epoch: 2026-07-10T10:28Z
TLE epoch observation values (Epoch: 2026-07-10T10:28:11.188Z)
Latitude
-0.00011°
Longitude
174.53286°
Altitude
682.485 km
Speed
7.522 km/s
True Right ascension
17h 19m 46s
True Declination
0° 00' 00"
Sunlit
Object was in full shadow at epoch
Visualization orbit readout
Latitude
Unknown
Longitude
Unknown
Altitude
Unknown
Speed
Unknown
Apparent Right ascension
Unknown
Apparent Declination
Unknown
Sunlit
N/A
Visualization observer readout
Local Sidereal Time
03:37:15
Azimuth
Unknown
Elevation
Unknown
Doppler factor
Unknown
Orbital elements
Apogee altitude
702.001 km
Perigee altitude
674.948 km
Semi-major axis
7,066.611 km
Eccentricity
0.00191
Inclination
98.5639°
RAAN
259.9433°
Arg. of periapsis
28.9167°
True anomaly
331.20328°
Mean anomaly
331.3088°
Eccentric anomaly
331.25606°
Mean motion
3.65365 °/min
Orbital period
98.53 mins
BSTAR
0.0011727

Documentation

Showing up to 5 results
|